Acazulco, Mexico

5:35 AM CST on February 27, 2017 (GMT -0600)
Lic Adolfo Lopez Mateos International

Weather History for MMTO - October, 2012

Change the Weather History Date:

Sunday, October 14, 2012

  Actual Average Record
Temperature  
Mean Temperature 60 °F -  
Max Temperature 73 °F 68 °F 75 °F (2007)
Min Temperature 46 °F 45 °F 37 °F (2010)
Degree Days  
Heating Degree Days 6    
Growing Degree Days 10 (Base 50)    
Moisture  
Dew Point 42 °F    
Average Humidity 61    
Maximum Humidity 93    
Minimum Humidity 18    
Precipitation  
Precipitation 0.00 in - - ()
Sea Level Pressure  
Sea Level Pressure 30.19 in    
Wind  
Wind Speed 3 mph ()    
Max Wind Speed 15 mph    
Max Gust Speed -    
Visibility 8.2 miles    
Events      
Averages and records for this station are not official NWS values.
T = Trace of Precipitation, MM = Missing Value Source: Averaged Metar Reports

Daily Weather History Graph

Daily Weather History Graph

Search for Another Location

Airport or City:

Trip Planner

Search our weather history database for the weather conditions in past years. The results will help you decide how hot, cold, wet, or windy it might be!

Date:

Astronomy

Oct. 14, 2012 Rise Set
Actual Time 7:32 AM CDT 7:15 PM CDT
Civil Twilight 7:10 AM CDT 7:37 PM CDT
Nautical Twilight 6:44 AM CDT 8:03 PM CDT
Astronomical Twilight 6:19 AM CDT 8:28 PM CDT
Moon 6:35 AM CDT (10/14) 6:38 PM CDT (10/14)
Length of Visible Light 12h 27m
Length of Day
11h 42m
Waning Crescent, 1% of the Moon is Illuminated
Oct 14
Waning Crescent
Oct 15
New
Oct 21
First Quarter
Oct 29
Full
Nov 6
Last Quarter

Hourly Weather History & Observations

Time (CDT) Temp. Dew Point Humidity Pressure Visibility Wind Dir Wind Speed Gust Speed Precip Events Conditions
12:45 AM 50.0 °F 46.4 °F 87% 29.94 in 5.0 mi Calm Calm - N/A   Scattered Clouds
1:45 AM 48.2 °F 46.4 °F 93% 30.44 in 5.0 mi Calm Calm - N/A   Scattered Clouds
2:45 AM 48.2 °F 44.6 °F 87% 30.42 in 5.0 mi Calm Calm - N/A   Scattered Clouds
3:45 AM 50.0 °F 44.6 °F 82% 29.82 in 5.0 mi Calm Calm - N/A   Mostly Cloudy
4:45 AM 48.2 °F 42.8 °F 82% 30.39 in 4.0 mi Calm Calm - N/A   Mostly Cloudy
5:45 AM 46.4 °F 42.8 °F 87% 30.39 in 3.0 mi Calm Calm - N/A   Mostly Cloudy
6:45 AM 46.4 °F 42.8 °F 87% 29.91 in 3.0 mi Calm Calm - N/A   Mostly Cloudy
7:45 AM 46.4 °F 42.8 °F 87% - 2.0 mi Calm Calm - N/A   Partly Cloudy
8:45 AM 48.2 °F 46.4 °F 93% 30.43 in 2.0 mi Calm Calm - N/A   Clear
9:45 AM 55.4 °F 48.2 °F 77% 29.96 in 3.0 mi Calm Calm - N/A   Haze
10:45 AM 60.8 °F 50.0 °F 68% 30.43 in 4.0 mi NW 5.8 mph - N/A   Scattered Clouds
11:45 AM 64.4 °F 50.0 °F 59% 30.42 in 5.0 mi West 6.9 mph - N/A   Scattered Clouds
12:45 PM 68.0 °F 46.4 °F 46% 29.82 in 8.0 mi West 4.6 mph - N/A   Scattered Clouds
1:45 PM 69.8 °F 41.0 °F 35% 30.36 in 14.0 mi Calm Calm - N/A   Mostly Cloudy
2:45 PM 73.4 °F 30.2 °F 20% 30.34 in 14.0 mi NE 15.0 mph - N/A   Mostly Cloudy
3:45 PM 73.4 °F 26.6 °F 18% 29.67 in 14.0 mi ENE 5.8 mph - N/A   Scattered Clouds
4:45 PM 73.4 °F 35.6 °F 25% 30.31 in 14.0 mi ENE 13.8 mph - N/A   Scattered Clouds
5:45 PM 71.6 °F 33.8 °F 25% 30.30 in 14.0 mi ENE 13.8 mph - N/A   Scattered Clouds
6:45 PM 68.0 °F 35.6 °F 30% 29.76 in 14.0 mi NE 10.4 mph - N/A   Mostly Cloudy
7:45 PM 60.8 °F 35.6 °F 39% 30.32 in 14.0 mi ENE 5.8 mph - N/A   Scattered Clouds
8:45 PM 60.8 °F 30.2 °F 31% 30.34 in 14.0 mi East 11.5 mph - N/A   Scattered Clouds
9:45 PM 57.2 °F 50.0 °F 77% 29.86 in 10.0 mi NE 9.2 mph - N/A   Partly Cloudy
10:45 PM 53.6 °F 42.8 °F 67% 30.39 in 10.0 mi SE 9.2 mph - N/A   Partly Cloudy
11:43 PM 51.8 °F 41.0 °F 67% 30.40 in 10.0 mi NNE 6.9 mph - N/A   Partly Cloudy